Regional Weather Roundup
Issued by NWS Pendleton, OR

Home | Current Version | Previous Version | Text Only | Print | Product List | Glossary On
Versions: 1 2 3 4 5 6 7 8 9 10 11 12 13 14 15 16 17 18 19 20 21 22 23 24 25 26 27 28 29 30 31 32 33 34 35 36 37 38 39 40 41 42 43 44 45 46 47 48 49 50
000
ASUS46 KPDT 242025
RWRPDT
PENDLETON REGIONAL WEATHER ROUNDUP
NATIONAL WEATHER SERVICE PENDLETON OREGON
1200 PM PST MON NOV 24 2014

NOTE: FAIR INDICATES FEW OR NO CLOUDS BELOW 12,000 FEET WITH NO
SIGNIFICANT WEATHER AND/OR OBSTRUCTIONS TO VISIBILITY.

# INDICATES UNOFFICIAL STATION AND DATA

WAZ520-242110-
EAST SLOPES OF WASHINGTON CASCADES

CITY            SKY/WX      TMP DP  RH  WIND    PRES   REMARKS
#BULLFROG 2SW   N/A         38  35  89  N1      27.85F
#BUMPING DAM    N/A         34  N/A N/A CALM    N/A
#CLE ELUM HS    N/A         38  33  82  W1      30.22F
#CLE ELUM 2NW   N/A         39  34  82  CALM    N/A
#CLE ELUM LAKE  N/A         38  33  82  CALM    30.32F
#CLIFFDEL 2NW   N/A         35  30  82  NW1     N/A
#GLENWOOD       N/A         38  33  82  CALM    30.36F
#MANASTASH CYN  N/A         40  27  59  SW1     30.20F
#NELSON         N/A         38  36  92  CALM    30.36F
#NELSON 3SW     N/A         36  31  82  CALM    30.54F
#NILE           N/A         37  33  85  CALM    29.60F
#RONALD 2NW     N/A         37  34  89  W1      30.11F
#SNOWDEN        N/A         47  40  76  CALM    N/A
#TEANAWAY 4NE   N/A         37  36  96  CALM    N/A
#TROUT LAKE HS  N/A         45  41  86  W1      N/A
#TROUT LAKE 1NE N/A         43  40  89  CALM    30.36F
$$

WAZ521-242110-
SIMCOE HIGHLANDS

CITY            SKY/WX      TMP DP  RH  WIND    PRES   REMARKS
#BICKLETON HS   N/A         44  30  58  W7      30.35F
#CENTERVILLE 4W N/A         46  39  76  NE2     30.04F
#CENTERVILLE 1SWN/A         43  37  79  CALM    30.32F
#GOLDENDALE     N/A         39  35  85  CALM    N/A
#GOLDENDALE 1NE N/A         41  33  73  CALM    N/A
#GOLDENDALE 1S  N/A         43  38  82  CALM    30.27F
#GOLDENDALE 5WNWN/A         43  37  79  CALM    30.33F
#GOODNOE HILLS  N/A         48  39  71  W9      N/A
#LYLE 6NE       N/A         42  39  89  CALM    30.32F
$$

WAZ026-242110-
KITTITAS VALLEY

CITY            SKY/WX      TMP DP  RH  WIND    PRES   REMARKS
ELLENSBURG AP   MOCLDY      42  33  70  E5      30.29F
#ELLENSBURG CWU N/A         39  33  79  E3      30.29F
#ELLENSBURG 3NE N/A         38  34  85  CALM    30.27F
#ELLENSBURG     N/A         44  39  82  NE2     N/A
#ELLENSBURG 1E  N/A         40  32  73  CALM    N/A
#KITTITAS 4N    N/A         42  35  76  E3      30.30F
#KITTITAS 3S    N/A         39  34  82  CALM    30.31F
#THORP 6N       N/A         37  33  85  N1      30.35F
$$

WAZ027-242110-
YAKIMA VALLEY

CITY            SKY/WX      TMP DP  RH  WIND    PRES   REMARKS
SUNNYSIDE AP    CLOUDY      43  32  65  N3      30.34F
YAKIMA AIRPORT  CLOUDY      41  30  65  CALM    30.33F
YAKIMA-VAGABOND CLOUDY      41  29  62  VRB2    30.32F
#DONALD 2NE     N/A         50  31  48  CALM    29.15F
#GRANDVIEW      N/A         46  28  49  CALM    30.36F
#MABTON         N/A         43  36  76  CALM    30.33F
#NACHES 2SW     N/A         41  33  73  NE1     30.31F
#OUTLOOK DOT    N/A         N/A N/A N/A NE1     N/A
#SELAH 8E       N/A         43  26  51  W2      N/A
#TERRACE HTS    N/A         41  33  73  SW1     30.34F
#TOPPENISH      N/A         41  31  67  CALM    30.27F
#WAPATO 4NE     N/A         50  31  48  CALM    29.15F
#WEST VALLEY    N/A         40  31  70  CALM    30.32F
#W YAKIMA       N/A         41  32  70  CALM    30.33F
#WHITE SWAN 5E  N/A         39  33  79  SE1     30.35F
#WILEY CITY 3W  N/A         40  29  64  CALM    30.33F
$$

WAZ028-242110-
LOWER COLUMBIA BASIN...WASHINGTON

CITY            SKY/WX      TMP DP  RH  WIND    PRES   REMARKS
PASCO           CLOUDY      46  40  79  N5      30.36F
PROSSER AWOS    N/A         46  36  68  E1      30.36F
#BASIN CITY 5SW N/A         46  39  76  S1      30.33F
#BENTON CITY    N/A         46  39  76  SW5     30.25F
#CONNELL 5N     N/A         43  38  82  SE1     30.36F
#CONNELL 5NW    N/A         43  39  86  CALM    30.33F
#ELTOPIA 6NW    N/A         43  40  89  E5      29.28F
#KAHLOTUS       N/A         44  39  82  CALM    30.37S
#KENNEWICK      N/A         38  35  89  N1      27.85F
#KENNEWICK 3S   N/A         48  39  71  S5      30.36F
#PATERSON       N/A         45  40  82  CALM    30.35F
#PROSSER        N/A         46  36  68  S2      30.34F
#SAGEMOOR 2W    N/A         44  39  82  SE5     30.20F
#TOUCHET 2S     N/A         54  42  64  S3      30.34F
#WEST PASCO     N/A         49  41  74  CALM    30.40S
$$

WAZ029-242110-
FOOTHILLS OF THE BLUES...WASHINGTON

CITY            SKY/WX      TMP DP  RH  WIND    PRES   REMARKS
WALLA WALLA AP  CLOUDY      53  37  54  SW16    30.35S
#COLLEGE PLACE  N/A         52  36  54  S6      30.36F
#DAYTON SCHOOL  N/A         50  34  54  S2      30.33F
#LOWDEN 2SE     N/A         55  39  55  SW7     30.32S
#PLEASANT VIEW 1N/A         46  41  83  SW9     30.41F
#PRESCOTT       N/A         51  42  71  SW3     30.35F
#SUDBURY        N/A         54  N/A N/A CALM    N/A
#WHITMAN COLLEGEN/A         53  39  59  E3      30.40F
#WAITSBURG 5S   N/A         49  40  71  S15     30.46F WCI 43
#WAITSBURG 8N   N/A         47  28  47  S2      30.24F
#WALLA WALLA 5E N/A         52  37  56  S6      N/A
#WALLA WALLA U  N/A         54  39  57  SW1     30.36F
#WHITMAN MISSIONN/A         55  40  57  SW7     30.38F
$$

WAZ030-242110-
BLUE MOUNTAINS...WASHINGTON

CITY            SKY/WX      TMP DP  RH  WIND    PRES   REMARKS
#DIXIE 5SE      N/A         44  30  58  S12     30.26S WCI 38
#SKI BLUEWOOD   N/A         35  29  78  SW3     30.38S
$$

ORZ009-041-WAZ024-242110-
COLUMBIA RIVER GORGE

CITY            SKY/WX      TMP DP  RH  WIND    PRES   REMARKS
HOOD RIVER AP   CLOUDY      46  43  89  CALM    30.35F
THE DALLES AP   CLOUDY      47  39  74  CALM    30.36F
#ARLINGTON AIRPON/A         47  41  79  W3      30.00S
#CELILO DOT     N/A         46  37  71  CALM    N/A
#MARYHILL 2W    N/A         46  43  89  S1      N/A
#MOSIER 1S      N/A         45  39  79  SW6     30.35F
#MURDOCK        N/A         47  42  83  W2      30.36F
#RUFUS DOT      N/A         N/A N/A N/A SW7     N/A

$$

ORZ510-242110-
NORTH CENTRAL OREGON

CITY            SKY/WX      TMP DP  RH  WIND    PRES   REMARKS
#CHENOWITH 1W   N/A         43  43  100 SW2     N/A
#COW CYN RST AREN/A         44  32  62  S5      N/A
#DUFUR 9E       N/A         43  38  82  SW3     30.39F
#GRASS VALLEY   N/A         44  35  70  S5      N/A
#GRASS VALLEY 1SN/A         45  37  73  SW8     30.40F
#KENT DOT       N/A         47  26  44  SW8     N/A
#MAUPIN SCHOOL  N/A         43  38  82  CALM    29.22F
#MORO SCHOOL    N/A         46  41  83  SW3     30.32F
#SHANIKO 5WSW   N/A         42  27  55  S13     N/A    WCI 35
#SHANIKO 4NW    N/A         43  32  65  S7      30.30F
#TYGH VALLEY 2NEN/A         44  40  86  CALM    30.35F
#WAPANITIA AIRPON/A         49  38  66  S5      30.36F
#WASCO DOT      N/A         48  37  65  SW1     N/A
#WASCO 5NE      N/A         47  39  74  CALM    30.35F
$$

ORZ511-242110-
CENTRAL OREGON

CITY            SKY/WX      TMP DP  RH  WIND    PRES   REMARKS
BEND AIRPORT    PTCLDY      46  27  47  S16     30.35F WCI 39
MADRAS AIRPORT  MOCLDY      50  34  54  S9      30.36F
PRINEVILLE AP   PTCLDY      46  32  58  E6      30.36F
REDMOND AIRPORT PTCLDY      47  31  53  S5      30.35F
#BEND 6E        N/A         48  24  39  CALM    30.36F
#BEND 1SW       N/A         41  31  67  W1      N/A
#BEND-AWBREY    N/A         44  32  62  N8      30.39F
#BEND-KIM LN    N/A         44  31  60  SW12G25 30.32F WCI 38
#CROOKED RVR RANN/A         47  34  60  SW1     30.38F
#CULVER         N/A         48  32  54  S5      30.29F
#LAKE BILLY CHINN/A         46  15  28  SE5     30.36F
#POWELL BUTTE 3EN/A         43  31  62  SE7     N/A
#POWELL BUTTE   N/A         51  36  56  N2      29.95F
#PRINEVILLE 3N  N/A         44  36  73  CALM    30.38F
#WARM SPRINGS   N/A         45  38  76  CALM    30.32F


ORZ509-242110-
EAST SLOPES OF OREGON CASCADES

CITY            SKY/WX      TMP DP  RH  WIND    PRES   REMARKS
#BLUE BOX PASS  N/A         41  -9  11  CALM    N/A
#BLACK BUTTE RNCN/A         46  32  58  CALM    30.39F
#CAMP SHERMAN   N/A         49  35  58  CALM    30.35F
#LA PINE DOT    N/A         43  21  41  SW6     N/A
#LA PINE 4NW    N/A         41  29  62  S1      30.52F
#LAVA BUTTE DOT N/A         43  23  45  CALM    N/A
#MT BACHELOR-MIDN/A         26  25  96  SE18G29 N/A    WCI 13
#SISTERS AIRPOR N/A         45  38  76  N1      29.91S
#SISTERS ODOT   N/A         47  N/A N/A CALM    N/A
#SISTERS 3N     N/A         45  32  60  S3      30.33S
#SUNRIVER       N/A         43  31  62  SW5     30.32F
#SUNRIVER AP    N/A         51  48  89  CALM    30.32F
#SUTTLE LK DOT  N/A         41  29  62  W23G36  N/A    WCI 31
#TUMALO 3W      N/A         48  30  49  S3      30.26F
#WANOGA BUTTE D N/A         36  24  61  W10     N/A

$$

ORZ044-242110-
LOWER COLUMBIA BASIN...OREGON

CITY            SKY/WX      TMP DP  RH  WIND    PRES   REMARKS
HERMISTON       CLOUDY      50  38  63  N3      30.34F
#BOARDMAN 3W    N/A         48  39  71  NE3     30.09F
#BOARDMAN 8SW   N/A         50  43  77  W3      30.33F
#ECHO 8SW       N/A         54  40  59  CALM    30.30F
#IONE SCHOOL    N/A         54  38  55  SW2     30.30F
#IRRIGON 4NW    N/A         44  40  86  S1      N/A
#UMATILLA SCHOOLN/A         46  40  79  CALM    30.34F
#UMATILLA       N/A         47  37  68  CALM    30.32F
$$

ORZ507-242110-
NORTHERN FOOTHILLS OF THE BLUES

CITY            SKY/WX      TMP DP  RH  WIND    PRES   REMARKS
PENDLETON AIRPT MOCLDY      51  37  59  SW6     30.34F
#ADAMS 3WNW     N/A         49  41  74  S2      30.37F
#ATHENA         N/A         50  38  63  SW3     30.39F
#CAYUSE         N/A         52  37  56  SW6     30.36F
#HELIX SCHOOL   N/A         48  40  74  S6      30.37F
#HELIX 3N       N/A         46  40  79  S10     30.28F
#HOLDMAN 5SE    N/A         51  40  66  SW5     30.32F
#HOLDMAN 6E     N/A         49  39  68  N9      30.17F
#M-F FERNDALE   N/A         55  37  51  CALM    30.33F
#M-F GROVE ELEM N/A         54  35  48  CALM    30.33S
#M-FREEWATER 5SEN/A         53  38  57  CALM    30.33F
#PENDLETON DNTN N/A         53  41  64  SW6     29.11F
#PDT AQUATIC CTRN/A         54  42  64  S7      30.29F
#PENDLETON 5NE  N/A         50  41  71  CALM    30.29F
#PDT SUNRIDGE   N/A         54  37  52  S7      30.34F
#PENDLETON 7NW  N/A         52  39  61  CALM    27.62F
#PILOT ROCK     N/A         52  31  44  S7      30.35F
#TUTUILLA       N/A         53  35  50  S6      30.36F
#UMAPINE 2E     N/A         56  41  57  SW2     30.32F
#WESTON SCHOOL  N/A         49  34  56  W6      30.29F

$$

ORZ508-242110-
SOUTHERN FOOTHILLS OF THE BLUES

CITY            SKY/WX      TMP DP  RH  WIND    PRES   REMARKS
LEXINGTON       MOCLDY      55  36  49  SE12    30.33F
#AJAX           N/A         46  31  56  SE1     30.23F
#CONDON SCHOOL  N/A         46  36  68  CALM    30.24F
#CONDON 5W      N/A         43  33  67  S10     30.28F
#FOSSIL SCHOOL  N/A         49  34  56  E5      30.27F
#HEPPNER EOC    N/A         51  34  52  SE3     30.30F
#HEPPNER 4NE    N/A         49  33  54  S5      30.36F
#LEXINGTON 2SE  N/A         56  37  49  S8      30.27F
#MIKKALO        N/A         50  36  58  W6      30.31F
#OLEX 4N        N/A         49  39  68  SW2     30.31F
#RUGGS 5NE      N/A         50  32  50  S10     30.46F
#RUGGS 2SW      N/A         49  32  52  SW9     30.37F

$$

ORZ502-503-242110-
BLUE MOUNTAINS

CITY            SKY/WX      TMP DP  RH  WIND    PRES   REMARKS
MEACHAM         CLOUDY      42  30  62  CALM    30.32F
#BATTLE MTN DOT N/A         37  36  96  S9      N/A
#HEPPNER 15SE   N/A         42  30  62  E2      30.22F
#LADD CYN SMT   N/A         38  24  57  E15     N/A    WCI 29
#LADD CREEK ODOTN/A         41  29  62  S8      N/A
#LONG CREEK HS  N/A         46  33  60  S3      30.30F
#N POWDER DOT   N/A         41  30  65  SE7     N/A
#PIKES PEAK     N/A         41  32  70  SW16    27.99S WCI 33
#TOLLGATE       N/A         32  31  96  S5      30.19F
#TROY SCHOOL    N/A         39  35  85  CALM    30.29F
#UKIAH          N/A         41  37  86  CALM    30.46F
#WESTON 4E      N/A         42  35  76  E9      30.34F
$$

ORZ505-242110-
JOHN DAY BASIN

CITY            SKY/WX      TMP DP  RH  WIND    PRES   REMARKS
JOHN DAY        PTCLDY      44  33  65  E9      30.37F
#DAYVILLE SCHOOLN/A         47  32  56  E6      30.32F
#MONUMENT HS    N/A         44  33  65  N5      30.37F
#MT. VERNON 5SE N/A         43  32  65  E6      30.31F
#WINLOCK        N/A         46  32  58  W5      30.39F
$$

ORZ506-242110-
OCHOCO AND JOHN DAY HIGHLANDS

CITY            SKY/WX      TMP DP  RH  WIND    PRES   REMARKS
#BUCK CREEK DOT N/A         46  32  58  S7      N/A
#HORSE RIDGE DO N/A         50  24  36  S9      N/A
#KEYES SMT DOT  N/A         43  29  57  SW16    N/A    WCI 35
#PAULINA SCHOOL N/A         44  31  60  CALM    30.35F
#PINE MTN OBS   N/A         38  21  50  S12     N/A    WCI 30
#PRAIRIE CITY   N/A         44  28  53  CALM    30.44F
#SENECA         N/A         37  N/A N/A SE6     N/A
#SENECA 9NW     N/A         35  30  82  CALM    30.48F
$$

ORZ049-242110-
GRANDE RONDE VALLEY

CITY            SKY/WX      TMP DP  RH  WIND    PRES   REMARKS
LA GRANDE       MOCLDY      45  27  49  S18G24  30.36F WCI 37
#COVE           N/A         43  37  79  S6      30.03S
#COVE SCHOOL    N/A         44  34  68  CALM    30.32F
#COVE 6NW       N/A         42  32  67  S1      30.48F
#ELGIN 3N       N/A         42  31  65  S8      30.06F
#ELGIN 1E       N/A         42  34  73  S1      N/A
#IMBLER SCHOOL  N/A         42  31  65  S12     30.30F WCI 35
#ISLAND CITY 4N N/A         50  48  93  CALM    30.32F
#LADD CYN DOT   N/A         42  28  57  SE13    N/A    WCI 35
#UNION 1S       N/A         43  32  65  SW7     30.37F
$$

ORZ050-242110-
WALLOWA COUNTY

CITY            SKY/WX      TMP DP  RH  WIND    PRES   REMARKS
JOSEPH AIRPORT  MOCLDY      36  25  64  W3      30.34F
#ENTERPRISE AP  N/A         39  26  59  CALM    30.23F
#ENTERPRISE HS  N/A         39  29  67  CALM    30.29F
#IMNAHA SCHOOL  N/A         42  30  62  S3      30.36F
#IMNAHA 10S     N/A         39  28  64  CALM    30.33F
#JOSEPH 3N      N/A         37  26  64  CALM    30.31F
#JOSEPH 3W      N/A         37  22  54  CALM    30.12F
#LOSTINE        N/A         39  25  57  CALM    30.22F
#MT HOWARD 8000 N/A         28   5  37  SW6     30.23F
#PROMISE 1S     N/A         36  29  75  CALM    30.53F
#SHEEP RDG 7000 N/A         27  10  48  CALM    30.50F
#WALLOWA SCHOOL N/A         38  31  76  CALM    31.40F



$$



USA.gov is the U.S. government's official web portal to all federal, state and local government web resources and services.